Location: Brookview Estates
(36.0476°N, 86.6931°W)
Time: 06:24:17
(UTC+00:00)

ATLAS 3B R/B - Pass Details

Date: 30 March 2020
Orbit: 1024 x 1171 km, 63.8° (Epoch: 29 May)

Event Time Altitude Azimuth Distance (km) Brightness Sun altitude
Rises 10:28:51 0° 187° (S) 3,803 5.4 -14.0°
Reaches altitude 10° 10:31:39 10° 180° (S) 2,837 4.8 -13.5°
Maximum altitude 10:37:46 40° 113° (ESE) 1,468 3.9 -12.3°
Drops below altitude 10° 10:43:51 10° 46° (NE) 2,817 5.9 -11.1°
Sets 10:46:36 0° 39° (NE) 3,774 6.5 -10.5°
